Weather History for KHLC - March, 2013

Change the Weather History Date:

Saturday, March 9, 2013

  Actual Average Record
Temperature  
Mean Temperature 52 °F 40 °F  
Max Temperature 70 °F 54 °F 84 °F (1989)
Min Temperature 33 °F 26 °F -2 °F (1998)
Degree Days  
Heating Degree Days 14    
Growing Degree Days 2 (Base 50)    
Moisture  
Dew Point 50 °F    
Average Humidity 78    
Maximum Humidity 94    
Minimum Humidity 30    
Precipitation  
Precipitation 0.01 in 0.05 in 0.01 in (2013)
Month to date precipitation 0.02 0.35  
Year to date precipitation 1.21 1.32  
Sea Level Pressure  
Sea Level Pressure 29.59 in    
Wind  
Wind Speed 21 mph (SSW)    
Max Wind Speed 31 mph    
Max Gust Speed 46 mph    
Visibility 10 miles    
Events Rain    
T = Trace of Precipitation, MM = Missing Value Source: NWS Daily Summary

Daily Weather History Graph

Daily Weather History Graph

Search for Another Location

Airport or City:

Trip Planner

Search our weather history database for the weather conditions in past years. The results will help you decide how hot, cold, wet, or windy it might be!

Date:

Astronomy

Mar. 09, 2013 Rise Set
Actual Time 6:59 AM CST 6:40 PM CST
Civil Twilight 6:32 AM CST 7:07 PM CST
Nautical Twilight 6:01 AM CST 7:38 PM CST
Astronomical Twilight 5:30 AM CST 8:09 PM CST
Moon 5:24 AM CST (3/9) 4:44 PM CST (3/9)
Length of Visible Light 12h 34m
Length of Day
11h 40m
Waning Crescent, 5% of the Moon is Illuminated
Mar 9
Waning Crescent
Mar 11
New
Mar 19
First Quarter
Mar 27
Full
Apr 2
Last Quarter

Hourly Weather History & Observations

Time (CST) Temp. Windchill Dew Point Humidity Pressure Visibility Wind Dir Wind Speed Gust Speed Precip Events Conditions
12:53 AM 57.0 °F - 53.1 °F 87% 29.66 in 10.0 mi South 24.2 mph 33.4 mph N/A   Overcast
1:18 AM 57.2 °F - 53.6 °F 88% 29.68 in 10.0 mi South 24.2 mph 32.2 mph N/A   Overcast
1:35 AM 57.2 °F - 53.6 °F 88% 29.68 in 10.0 mi South 18.4 mph 29.9 mph N/A   Overcast
1:53 AM 55.9 °F - 53.1 °F 90% 29.62 in 10.0 mi SSE 17.3 mph 23.0 mph 0.01 in Rain Light Rain
2:53 AM 55.0 °F - 52.0 °F 89% 29.61 in 10.0 mi South 23.0 mph 26.5 mph 0.00 in   Scattered Clouds
3:07 AM 55.4 °F - 53.6 °F 94% 29.64 in 10.0 mi South 19.6 mph 29.9 mph N/A   Mostly Cloudy
3:14 AM 55.4 °F - 53.6 °F 94% 29.64 in 10.0 mi South 20.7 mph 29.9 mph N/A   Overcast
3:53 AM 55.9 °F - 53.1 °F 90% 29.57 in 10.0 mi South 20.7 mph 28.8 mph N/A   Overcast
4:46 AM 55.4 °F - 53.6 °F 94% 29.58 in 10.0 mi South 18.4 mph 28.8 mph N/A   Mostly Cloudy
4:53 AM 55.9 °F - 53.1 °F 90% 29.56 in 10.0 mi South 17.3 mph 28.8 mph N/A   Mostly Cloudy
5:49 AM 57.2 °F - 53.6 °F 88% 29.58 in 10.0 mi South 16.1 mph 26.5 mph N/A   Overcast
5:53 AM 55.9 °F - 53.1 °F 90% 29.56 in 10.0 mi South 15.0 mph 24.2 mph N/A   Overcast
6:53 AM 55.9 °F - 53.1 °F 90% 29.55 in 10.0 mi South 18.4 mph 23.0 mph N/A   Mostly Cloudy
7:02 AM 55.4 °F - 53.6 °F 94% 29.57 in 10.0 mi South 16.1 mph 24.2 mph N/A   Scattered Clouds
7:20 AM 55.4 °F - 53.6 °F 94% 29.57 in 10.0 mi South 16.1 mph 24.2 mph N/A   Mostly Cloudy
7:44 AM 55.4 °F - 53.6 °F 94% 29.58 in 10.0 mi South 18.4 mph - N/A   Partly Cloudy
7:53 AM 55.0 °F - 52.0 °F 89% 29.56 in 10.0 mi South 15.0 mph 25.3 mph N/A   Partly Cloudy
8:53 AM 57.0 °F - 53.1 °F 87% 29.55 in 10.0 mi South 17.3 mph 24.2 mph N/A   Clear
9:53 AM 61.0 °F - 52.0 °F 72% 29.52 in 10.0 mi South 18.4 mph 26.5 mph N/A   Partly Cloudy
10:53 AM 63.0 °F - 44.1 °F 50% 29.50 in 10.0 mi SSW 20.7 mph 28.8 mph N/A   Mostly Cloudy
11:53 AM 68.0 °F - 41.0 °F 37% 29.47 in 10.0 mi SW 19.6 mph 29.9 mph N/A   Scattered Clouds
12:53 PM 69.1 °F - 36.0 °F 30% 29.44 in 10.0 mi SSW 19.6 mph 34.5 mph N/A   Partly Cloudy
1:29 PM 68.0 °F - 42.8 °F 40% 29.47 in 10.0 mi West 11.5 mph 23.0 mph N/A   Scattered Clouds
1:53 PM 64.9 °F - 41.0 °F 42% 29.44 in 10.0 mi West 11.5 mph 19.6 mph N/A   Partly Cloudy
2:53 PM 60.1 °F - 43.0 °F 53% 29.47 in 10.0 mi WNW 20.7 mph 27.6 mph N/A   Clear
3:53 PM 57.0 °F - - N/A% 29.51 in 10.0 mi NNW 24.2 mph 32.2 mph N/A   Clear
4:53 PM 48.0 °F - - N/A% 29.56 in 10.0 mi NNW 27.6 mph 36.8 mph N/A   Clear
5:25 PM 42.8 °F 32.3 °F - N/A% 29.60 in 10.0 mi North 29.9 mph 38.0 mph N/A   Mostly Cloudy
5:53 PM 39.9 °F 28.4 °F - N/A% 29.62 in 10.0 mi North 29.9 mph 39.1 mph N/A   Overcast
6:53 PM 36.0 °F 24.2 °F - N/A% 29.68 in 10.0 mi North 24.2 mph 35.7 mph N/A   Overcast
7:53 PM 35.1 °F 23.8 °F - N/A% 29.72 in 10.0 mi North 20.7 mph 29.9 mph N/A   Overcast
8:53 PM 35.1 °F 23.3 °F - N/A% 29.74 in 10.0 mi North 23.0 mph 34.5 mph N/A   Overcast
10:53 PM 34.0 °F 21.5 °F - N/A% 29.78 in 10.0 mi North 24.2 mph 36.8 mph N/A   Overcast
11:53 PM 33.1 °F 18.9 °F - N/A% 29.77 in 9.0 mi North 31.1 mph 46.0 mph N/A   Overcast